DW3371 Weather Reports


Display with metric or nautical units.
time (UTC)temp
F
wind
direction
speed
MPH
gust
MPH
rain 1hr
in
rain 24hr
in
rain mn
in
humidity
%
barometer
mb
20260902232737 67 0 8.0 16.0 0.00 0.00 0.00 83 1012.4
20260902225739 67 227 9.0 18.0 0.00 0.00 0.00 82 1012.7
20260902222736 67 0 8.0 16.0 0.00 0.00 0.00 83 1012.9
20260902215739 67 218 7.0 16.0 0.00 0.00 0.00 83 1012.5
20260902212741 67 250 8.0 21.0 0.00 0.00 0.00 84 1012.7
20260902205734 67 273 6.0 19.0 0.00 0.00 0.00 84 1012.6
20260902195735 67 225 7.0 15.0 0.00 0.00 0.00 84 1012.8
20260902185740 68 0 8.0 19.0 0.00 0.00 0.00 83 1012.7
20260902182737 68 225 8.0 17.0 0.00 0.00 0.00 79 1012.7
20260902175734 69 220 8.0 22.0 0.00 0.00 0.00 78 1012.8
20260902165732 69 207 10.0 20.0 0.00 0.00 0.00 76 1013.1
20260902162732 69 241 10.0 20.0 0.00 0.00 0.00 76 1013.2
20260902155734 68 187 9.0 23.0 0.00 0.00 0.00 78 1013.6
20260902152732 67 232 6.0 17.0 0.00 0.00 0.00 82 1013.9
20260902145734 67 210 8.0 18.0 0.00 0.00 0.00 82 1014.4
20260902142732 67 0 9.0 18.0 0.00 0.00 0.00 77 1014.6
20260902132730 69 174 8.0 16.0 0.00 0.00 0.00 69 1015.4
20260902125732 70 180 8.0 20.0 0.00 0.00 0.00 68 1015.8
20260902122728 69 199 9.0 19.0 0.00 0.00 0.00 68 1016.0
20260902115735 70 190 7.0 17.0 0.00 0.00 0.00 69 1015.9
20260902105729 68 244 6.0 14.0 0.00 0.00 0.00 73 1016.7
20260902095725 66 244 7.0 12.0 0.00 0.00 0.00 78 1017.0
20260902075724 63 0 5.0 10.0 0.00 0.00 0.00 83 1017.0
20260902062714 60 238 3.0 8.0 0.00 0.00 0.00 83 1016.5
20260902055716 60 0 3.0 9.0 0.00 0.00 0.00 83 1016.5
20260902042713 59 236 0.0 0.0 0.00 0.00 0.00 82 1016.5
20260902035717 58 223 2.0 5.0 0.00 0.00 0.00 82 1016.3
20260902032710 59 270 1.0 6.0 0.00 0.00 0.00 81 1016.6
20260902025709 59 236 2.0 5.0 0.00 0.00 0.00 80 1016.8
20260902022714 60 230 1.0 5.0 0.00 0.00 0.00 79 1016.6
20260902015707 60 229 2.0 5.0 0.00 0.00 0.00 77 1016.8
20260902005707 63 261 4.0 8.0 0.00 0.00 0.00 73 1017.3
20260902002707 64 244 3.0 10.0 0.00 0.00 0.00 72 1017.2
20260901235707 64 250 4.0 9.0 0.00 0.00 0.00 72 1017.1